STARLINK-36879

Last updated on Fri Mar 27 2026 00:02:06 GMT+0000 (Coordinated Universal Time)

1 67982U 26038X 26085.45098830 .00054872 00000+0 10029-2 0 9998 2 67982 97.2828 96.2534 0001398 25.3376 334.7944 15.49207015 5807
UTC large
Height (km)
Speed (km/s)
/
Latitude / Longitude
Inclination (degrees)
Orbital Period (minutes)
Azimuth
Elevation
Range (km)
Doppler Factor

Next 0 passes for location: London (51.5072 / 0.1276)

Sorry there are no passes over London.